STARLINK-1997 (47592 NORAD) Tracking and Keplerian Element Data
This shows tracking and keplerian element data for the satellite.
Feedback or suggestion? Click here.
Element | Value |
Catalog | 47592 |
Name | STARLINK-1997 |
Epoch Orbit | 407 |
Epoch Day | 57.16667824 |
Epoch Year | 2021 |
RAAN | 16.4395 |
Inclination | 53.0534 |
Eccentricity | 0.0001323 |
Argument of Perigee | 76.5362 |
Mean Anonmoly | 251.7122 |
Mean Motion | 15.62464637 |
Decay Rate | 0.00611936 |
L1 | 1 47592U 21009AW 21057.16667824 .00611936 00000-0 62681-2 0 9995 |
L2 | 2 47592 53.0534 16.4395 0001323 76.5362 251.7122 15.62464637 4070 |
Live tracking and technical data element details for STARLINK-1997 (NORAD 47592). STARLINK-1997 can be tracked NOW for your location showing map with azimuth and elevation plus other details from your city location.
Track the satellite on the map from your city or location and see movement details for azimuth, elevation, latitude, longitude, range, height, and movement on the map or in text.
IsCatalogInMostPopularTable: catalog: 47592, numindb: 1
Update: records affected: 1
GetName: 47592 STARLINK-1997
Hit Count: updated at: Fri, 26 Feb 2021 09:19:36 GMT